Regional Weather Roundup
Issued by NWS Upton, NY

Current Version | Previous Version | Text Only | Print | Product List | Glossary On
Versions: 1 2 3 4 5 6 7 8 9 10 11 12 13 14 15 16 17 18 19 20 21 22 23 24 25 26 27
000
ASUS41 KOKX 232208
RWROKX

REGIONAL WEATHER ROUNDUP
NATIONAL WEATHER SERVICE NEW YORK NY
600 PM EDT THU MAR 23 2017

NOTE: "FAIR" INDICATES FEW OR NO CLOUDS BELOW 12,000 FEET WITH NO
SIGNIFICANT WEATHER AND/OR OBSTRUCTIONS TO VISIBILITY.

NYZ071-072-176-178-NJZ106-104-232300-
NEW YORK CITY METRO AREA

CITY           SKY/WX    TMP DP  RH WIND       PRES   REMARKS
Central Park   SUNNY     42  -3  15 VRB6      30.52F
Wall St Helipt CLEAR     45   5  19 W8        30.51F
LaGuardia APRT MOSUNNY   44   2  17 NW10      30.50S
Kennedy INTL   MOSUNNY   43  -1  16 NW12      30.51F
Breezy Point     N/A     41 N/A N/A W8          N/A
Newark/Liberty MOSUNNY   44  -2  14 VRB6      30.50F
Teterboro      SUNNY     44   2  17 NW15G21   30.49F
$$

NYZ177-179-078>081-232300-
LONG ISLAND NEW YORK

CITY           SKY/WX    TMP DP  RH WIND       PRES   REMARKS
Jones Beach      N/A     39 N/A N/A W8          N/A  WCI  34
Matinecock PT    N/A     41 N/A N/A NW15        N/A
Farmingdale    SUNNY     41  -1  17 NW8       30.50S
MacArthur/ISP  MOSUNNY   40   0  18 NW10      30.50R WCI  33
Shirley        SUNNY     39   0  19 NW13      30.51S WCI  31
Westhampton    SUNNY     38  -3  17 NW14G22   30.51S WCI  30
East Hampton     N/A     36   2  24 W6        30.49S WCI  32
Montauk          N/A     38   2  22 W12       30.49R WCI  30
$$

NYZ052-065-067-232300-
HUDSON VALLEY

CITY           SKY/WX    TMP DP  RH WIND       PRES   REMARKS
White Plains   SUNNY     39   0  19 NW10      30.47F WCI  32
Newburgh       SUNNY     39   3  22 NW14      30.47F WCI  31
Montgomery     SUNNY     40  -1  18 W8        30.46F WCI  34
Poughkeepsie   SUNNY     40  -4  15 N3        30.47F
Albany         MOSUNNY   35   6  29 W17       30.48F WCI  25
$$

NJZ001-105-106-008-010-013-015-019>022-104-232300-
NEW JERSEY

CITY           SKY/WX    TMP DP  RH WIND       PRES   REMARKS
Newark/Liberty MOSUNNY   44  -2  14 VRB6      30.50F
Teterboro      SUNNY     44   2  17 NW15G21   30.49F
Caldwell       SUNNY     42  -1  16 W8        30.50F
Somerville     SUNNY     44   3  18 VRB5      30.48F
Linden           N/A     43   1  17 W7        30.51F
Sussex         SUNNY     40   1  19 W6        30.49S
Andover          N/A     40  -4  15 CALM      30.48F
Trenton        SUNNY     43   7  22 N7        30.50F
Millville      SUNNY     43  10  26 W10       30.53F
Atlantic City  SUNNY     44   6  21 W12       30.52S
Wrightstown    SUNNY     43   6  21 NW8       30.49F
Toms River     SUNNY     43   7  22 NW8       30.52F
Belmar         SUNNY     39  14  36 SE8       30.52F WCI  33
$$

PAZ047>061-062-071-232300-
EASTERN PENNSYLVANIA

CITY           SKY/WX    TMP DP  RH WIND       PRES   REMARKS
Philadelphia   MOSUNNY   45   8  22 W14       30.52F
Allentown      SUNNY     44   2  17 W9        30.49F
Scranton       SUNNY     38   7  27 CALM      30.47F
$$

CTZ002-004>006-009-010-012-RIZ004-006-007-MAZ004-011-015-232300-
SOUTHERN NEW ENGLAND
 IN CT

CITY           SKY/WX    TMP DP  RH WIND       PRES   REMARKS
Bradley INTL   MOSUNNY   37   1  22 NW12      30.47S WCI  29
Hartford       SUNNY     38   1  21 N13       30.49S WCI  30
Danbury        SUNNY     38  -3  17 VRB7      30.47F WCI  33
Wtrbury/Oxford SUNNY     36   0  21 NW9       30.47S WCI  29
Bridgeport     SUNNY     43  -3  14 NW13      30.49S
Meriden        SUNNY     39   0  19 NW9       30.49R WCI  33
New Haven      SUNNY     39   0  19 NW8G16    30.50R WCI  33
Chester          N/A     37  -4  17 VRB7G15   30.47R WCI  32
Groton         SUNNY     39  -1  18 NW16G23   30.47S WCI  30
Wilimantic     SUNNY     38   0  20 W13G18    30.48R WCI  30

 IN RI

CITY           SKY/WX    TMP DP  RH WIND       PRES   REMARKS
Providence     MOSUNNY   39  -3  17 NW13G21   30.44S WCI  31
Block Island   SUNNY     37   5  26 W10G17    30.46S WCI  30
Westerly       SUNNY     39  -2  17 W8        30.47R WCI  33
 IN MA

CITY           SKY/WX    TMP DP  RH WIND       PRES   REMARKS
Boston         MOSUNNY   37  -1  20 NW17G26   30.43R WCI  27
Worcester      SUNNY     32  -3  22 NW13      30.40R WCI  22
Westfield      SUNNY     36   4  26 NW14      30.46S WCI  27
Provincetown   CLEAR     36   9  32 NW18      30.43R WCI  26
Nantucket      CLEAR     36   2  23 W15G23    30.43S WCI  27
$$

ANZ330-335-338-340-345-350-353-355-232300-
COASTAL MARINE OBSERVATIONS


STATION/POSITION TIME  SKY/WX   TEMP    WIND        PRES    VSBY  WAVE
                                AIR SEA DIR/SP/G                  HT/PER
                 (UTC)          (F)     (DEG/KT/KT) (MB)    (MI)  (FT/S)
NY HARB ENTRANCE 2150            40 42  270/ 10/ 17 1033.3          1/10
20 S FIRE ISLAND 2150            37 41  280/  6/  8 1033.6          2/ 3
GREAT SOUTH BAY  NOT AVBL
23 SSW MONTAUK P 2150            37 42              1032.6          4/ 5
15 E BARNEGAT LI 2130               43                N/A           2/12
HUDSON CANYON    2050            34 45  300/ 14/ 16 1034.4          3/ 5
KINGS POINT      2130            40 39              1032.7
EXECUTION ROCKS  NOT AVBL
CENTRAL LI SOUND 2130            38     300/ 12/ 14   N/A           1/ 3
EASTERN LI SOUND NOT AVBL
ROBBINS REEF     2130            41     270/ 12/ 13 1033.2
$$


>>>>>>>>>>>>>>>>>>>>>>>>>>>> KEY <<<<<<<<<<<<<<<<<<<<<<<<<<<
>                                                          <
>     SKY/WX - Sky Condition/Present Weather               <
>     TMP    - Temperature in Fahrenheit                   <
>     DP     - Dew Point in Fahrenheit                     <
>     RH     - Relative Humidity in Percent                <
>     WIND   - Direction (from) and Speed in MPH           <
>     PRES   - Mean Sea Level Pressure (inches of Hg)      <
>     WCI    - Wind Chill Index                            <
>     VSB    - VISIBILITY IN MILES                         <
>     HX     - HEAT INDEX                                  <
>     TC     - TEMPERATURE IN CELSIUS                      <
>     VRB    - VARIABLE WIND DIRECTION                     <
>                                                          <
>>>>>>>>>>>>>>>>>>>>>>>>>>>> KEY <<<<<<<<<<<<<<<<<<<<<<<<<<<




USA.gov is the U.S. government's official web portal to all federal, state and local government web resources and services.